カタログに戻る

STARLINK-31405

運用中通信VLEO
NORAD 59248·PAYLOAD·🇺🇸 United States

打ち上げ Mar 16, 2024 から Cape Canaveral Space Force Station

Loading…

次のパス (今後24時間)

TLE

最新Source: CelesTrak SupGP

元期: Sep 14, 2026, 20:53 UTC

1 59248C 24049T   26257.87062500 -.00044125  00000+0 -15983-2 0  2579
2 59248  43.0020 155.2973 0001302 266.7564 216.1024 15.27598225    16

AllMySatでSTARLINK-31405をリアルタイム追跡

Download on the App Store